This is the latest recevied weather packets stored in our database for station/object W1GK. If no packets are shown the sender has not sent any weather packets the latest 1 day(s).
| Time | Temp. | Humidity | Pressure | Rain* | Wind** | Luminosity | Snow |
|---|---|---|---|---|---|---|---|
| 1778025603 | 25.56° C | 16% | 1008.8 hPa | 0 mm | 0.45 m/s, 179° | 439 W/m² | - |
| 1778024999 | 25° C | 16% | 1008.8 hPa | 0 mm | 2.68 m/s, 203° | 464 W/m² | - |
| 1778024400 | 24.44° C | 16% | 1008.7 hPa | 0 mm | 0.89 m/s, 345° | 496 W/m² | - |
| 1778023799 | 25° C | 17% | 1008.8 hPa | 0 mm | 0.89 m/s, 234° | 527 W/m² | - |
| 1778023199 | 25.56° C | 17% | 1008.9 hPa | 0 mm | 1.79 m/s, 132° | 563 W/m² | - |
| 1778022600 | 25° C | 17% | 1009 hPa | 0 mm | 0.89 m/s, 188° | 599 W/m² | - |
| 1778022001 | 25° C | 18% | 1009.1 hPa | 0 mm | 0.89 m/s, 191° | 633 W/m² | - |
| 1778021398 | 25° C | 18% | 1009.3 hPa | 0 mm | 2.24 m/s, 215° | 650 W/m² | - |
| 1778020800 | 24.44° C | 19% | 1009.4 hPa | 0 mm | 1.34 m/s, 211° | 679 W/m² | - |
| 1778020199 | 25° C | 19% | 1009.5 hPa | 0 mm | 1.79 m/s, 227° | 95 W/m² | - |
| 1778019601 | 25° C | 18% | 1009.5 hPa | 0 mm | 2.24 m/s, 150° | 786 W/m² | - |
| 1778019000 | 25° C | 19% | 1009.6 hPa | 0 mm | 0.89 m/s, 227° | 165 W/m² | - |
| 1778018401 | 25° C | 20% | 1009.7 hPa | 0 mm | 2.24 m/s, 163° | 821 W/m² | - |
| 1778017799 | 23.89° C | 20% | 1009.8 hPa | 0 mm | 1.34 m/s, 15° | 838 W/m² | - |
| 1778017199 | 25° C | 19% | 1009.9 hPa | 0 mm | 1.34 m/s, 204° | 860 W/m² | - |
| 1778016600 | 25° C | 20% | 1010.1 hPa | 0 mm | 1.34 m/s, 144° | 870 W/m² | - |
| 1778015999 | 25° C | 20% | 1010.1 hPa | 0 mm | 1.79 m/s, 227° | 853 W/m² | - |
| 1778015399 | 25.56° C | 19% | 1010.3 hPa | 0 mm | 1.34 m/s, 150° | 462 W/m² | - |
| 1778014803 | 25.56° C | 18% | 1010.3 hPa | 0 mm | 1.34 m/s, 150° | 188 W/m² | - |
| 1778014201 | 25° C | 20% | 1010.3 hPa | 0 mm | 2.24 m/s, 5° | 163 W/m² | - |
| 1778013601 | 24.44° C | 21% | 1010.4 hPa | 0 mm | 1.79 m/s, 159° | 536 W/m² | - |
| 1778013001 | 23.89° C | 20% | 1010.3 hPa | 0 mm | 1.34 m/s, 193° | 842 W/m² | - |
| 1778012402 | 23.89° C | 21% | 1010.4 hPa | 0 mm | 1.34 m/s, 216° | 960 W/m² | - |
| 1778011800 | 23.89° C | 21% | 1010.5 hPa | 0 mm | 2.68 m/s, 164° | 974 W/m² | - |
| 1778011203 | 23.33° C | 21% | 1010.6 hPa | 0 mm | 0.89 m/s, 262° | 1034 W/m² | - |
* Rain latest hour (hover to see other rain measurements)
** Current wind speed in m/s (hover to see current wind gust speed)